sat.trackr.live / text

‹ back to catalog

IRIDIUM 121

NORAD 42812 · 2017-039K

PAYLOAD ACTIVE UNKNOWN

§ Identity

Operator
Country
US
Launch date
2017-06-25
Launch site
AFWTR
Launch vehicle
Mass (kg)
RCS (m²)

Purposes: comms

External: N2YO · Heavens-Above · Gunter

§ Orbital elements

Epoch: 2026-05-25T01:46:59.505312Z

Period
100.40 min
Inclination
86.3986°
Eccentricity
0.0002080
Mean motion
14.34219072 rev/d
Perigee alt
776.2 km
Apogee alt
779.2 km
Semi-major
7,155.8 km
B*
6.5060e-5
RAAN
3.3345°
Arg perigee
86.3837°
Mean anomaly
273.7597°
Rev number
46,651

§ Raw data

IRIDIUM 1211 42812U 17039K   26145.07429983  .00000202  00000+0  65060-4 0  99912 42812  86.3986   3.3345 0002080  86.3837 273.7597 14.34219072466517

JSON: /api/v1/satellites/42812 · /tle

For live sub-satellite position, see the globe view (requires WebGL).

§ Visibility from observer

Set your observer location to see the next 7 days of passes ≥ 10°. The values pass through the URL so the page stays shareable.

No JS? Fill the form by hand. The geolocation button needs JavaScript.